Stations météo

Publicité
Socoa, France (7600): Température de l'air & dewpoint: 10.12.2018 15:00:00 - 16.12.2018 15:00:00 (CET)Socoa, France (7600): Vitesse du vent & gusts: 10.12.2018 15:00:00 - 16.12.2018 15:00:00 (CET)Socoa, France (7600): Direction du vent: 10.12.2018 15:00:00 - 16.12.2018 15:00:00 (CET)Socoa, France (7600): reduced air pressure: 10.12.2018 15:00:00 - 16.12.2018 15:00:00 (CET)Socoa, France (7600): visibility: 10.12.2018 15:00:00 - 16.12.2018 15:00:00 (CET)Socoa, France (7600): Quantités de précipitations: 10.12.2018 15:00:00 - 16.12.2018 15:00:00 (CET)
Date & Time tt [°C] td [°C] ff [km/h] ff [knt] fx [km/h] fx [knt] dd ppp [hPa] vv [km] rr [mm]
16.12.2018 15:00:00 - - - - - - - - - -
16.12.2018 14:00:00 11,5 9,7 15 8 42 23 NNW 1015,2 - 1,2
16.12.2018 13:00:00 11,8 10,0 10 5 14 8 N 1014,5 12 0,0
16.12.2018 12:00:00 11,6 10,0 6 3 14 8 N 1014,8 - 0,0
16.12.2018 11:00:00 10,8 9,7 11 6 21 11 E 1014,8 - 0,0
16.12.2018 10:00:00 10,6 9,5 16 9 32 17 E 1015,3 12 0,2
16.12.2018 09:00:00 10,3 9,2 6 4 26 14 S 1015,9 - 0,0
16.12.2018 08:00:00 10,4 9,3 11 6 20 11 SE 1015,9 - 1,1
16.12.2018 07:00:00 10,2 9,1 5 3 20 11 ESE 1016,9 - 0,6
16.12.2018 06:00:00 10,5 9,4 22 12 37 20 NNW 1018,0 - 0,8
16.12.2018 05:00:00 11,7 10,6 30 16 40 21 NNW 1017,8 - 3,2
16.12.2018 04:00:00 12,5 11,2 16 9 36 20 NNW 1017,6 8 1,0
16.12.2018 03:00:00 14,0 12,7 17 9 19 10 NW 1017,8 - 0,0
16.12.2018 02:00:00 14,1 12,5 12 6 21 12 WNW 1018,0 - 0,0
16.12.2018 01:00:00 14,5 12,5 11 6 60 32 WSW 1018,6 12 0,0
16.12.2018 00:00:00 16,2 9,6 32 18 60 32 WSW 1018,3 - 0,2
15.12.2018 23:00:00 15,6 8,8 6 3 28 15 SSW 1017,3 - 0,0
15.12.2018 22:00:00 16,3 8,3 22 12 46 25 S 1017,0 18 0,0
15.12.2018 21:00:00 16,5 7,9 27 15 49 26 S 1016,4 - 0,0
15.12.2018 20:00:00 16,5 7,9 31 17 50 27 S 1016,3 - 0,0
15.12.2018 19:00:00 16,4 7,9 31 17 44 24 S 1016,2 - 0,0
15.12.2018 18:00:00 16,1 8,3 27 15 44 24 S 1016,3 - 0,0
15.12.2018 17:00:00 16,0 9,0 16 8 39 21 S 1016,6 - 0,0
15.12.2018 16:00:00 16,5 8,9 30 16 45 24 S 1016,3 18 0,0
15.12.2018 15:00:00 16,5 9,2 21 11 48 26 S 1016,8 - 0,0
15.12.2018 14:00:00 15,9 9,1 23 12 38 20 S 1017,5 - 0,0
15.12.2018 13:00:00 15,6 9,5 19 10 44 24 S 1018,4 20 0,0
15.12.2018 12:00:00 14,1 9,3 18 10 37 20 S 1019,7 - 0,0
15.12.2018 11:00:00 12,4 8,7 19 11 42 23 S 1020,4 - 0,0
15.12.2018 10:00:00 11,3 9,0 24 13 39 21 S 1020,7 - 1,0
15.12.2018 09:00:00 11,3 8,2 13 7 35 19 SSW 1020,7 - 0,8
15.12.2018 08:00:00 11,3 6,6 23 12 35 19 S 1020,3 - 0,0
15.12.2018 07:00:00 11,3 5,8 16 9 33 18 SSW 1020,9 10 0,0
15.12.2018 06:00:00 10,9 5,0 18 10 27 15 S 1020,7 - 0,0
15.12.2018 05:00:00 10,4 4,7 16 9 27 15 S 1021,2 - 0,0
15.12.2018 04:00:00 10,3 5,1 22 12 32 17 S 1021,8 12 0,0
15.12.2018 03:00:00 9,6 5,8 21 11 30 16 S 1022,1 - 0,0
15.12.2018 02:00:00 9,1 6,0 16 9 26 14 S 1022,5 - 0,0
15.12.2018 01:00:00 8,6 6,6 16 9 20 11 S 1023,1 15 0,0
15.12.2018 00:00:00 8,7 6,5 16 8 19 10 S 1023,4 - 0,0
14.12.2018 23:00:00 9,4 6,7 16 9 23 12 SSW 1023,7 - 0,0
14.12.2018 22:00:00 10,0 7,1 15 8 29 16 SSW 1024,2 - 0,0
14.12.2018 21:00:00 10,7 7,8 17 9 31 17 SSW 1024,2 - 0,0
14.12.2018 20:00:00 12,0 8,3 26 14 34 19 WNW 1024,2 - 0,0
14.12.2018 19:00:00 12,2 7,9 29 16 51 28 NW 1023,9 8 0,0
14.12.2018 18:00:00 11,7 9,1 38 20 59 32 W 1023,4 - 0,4
14.12.2018 17:00:00 12,7 8,4 35 19 - - WNW 1022,8 - 0,0
14.12.2018 16:00:00 12,1 8,6 40 21 70 38 WNW 1022,5 8 1,6
14.12.2018 15:00:00 13,0 10,2 37 20 57 31 NW 1022,1 - 0,2
14.12.2018 14:00:00 12,0 9,2 48 26 60 32 WNW 1021,6 - 0,0
14.12.2018 13:00:00 12,6 10,0 35 19 41 22 W 1021,4 8 0,4
14.12.2018 12:00:00 12,8 9,8 27 14 37 20 WNW 1021,3 - 0,0
14.12.2018 11:00:00 11,5 9,4 26 14 70 38 WNW 1020,6 - 0,6
14.12.2018 10:00:00 11,6 9,7 40 22 72 39 NNW 1019,7 5 2,5
14.12.2018 09:00:00 12,0 9,6 52 28 82 45 NW 1018,6 - 0,2
14.12.2018 08:00:00 12,1 9,7 49 26 71 38 NW 1017,7 - 0,6
14.12.2018 07:00:00 11,6 8,8 55 30 77 42 NW 1016,9 - 2,2
14.12.2018 06:00:00 12,2 9,9 49 26 74 40 WNW 1015,8 - 0,2
14.12.2018 05:00:00 12,2 9,9 49 26 89 48 WNW 1015,5 - 0,8
14.12.2018 04:00:00 12,2 10,1 49 26 75 40 WNW 1015,3 - 1,8
14.12.2018 03:00:00 12,9 9,0 54 29 73 39 WNW 1015,0 - 0,0
14.12.2018 02:00:00 13,0 9,3 50 27 75 40 WNW 1014,8 - 0,2
14.12.2018 01:00:00 12,7 8,8 57 31 75 40 WNW 1014,4 10 0,2
14.12.2018 00:00:00 12,5 9,5 55 30 76 41 WNW 1013,9 - 0,8
13.12.2018 23:00:00 12,7 9,3 46 25 74 40 WNW 1013,2 - 0,0
13.12.2018 22:00:00 12,6 9,2 48 26 74 40 WNW 1012,7 10 0,0
13.12.2018 21:00:00 13,0 9,1 53 29 74 40 WNW 1012,0 - 0,0
13.12.2018 20:00:00 12,3 8,6 50 27 81 44 WNW 1011,2 - 2,5
13.12.2018 19:00:00 12,2 9,0 48 26 69 37 NW 1010,7 6 1,2
13.12.2018 18:00:00 12,3 9,8 44 24 66 36 NW 1009,9 - 0,8
13.12.2018 17:00:00 11,1 8,8 44 24 82 44 WNW 1008,9 - 8,9
13.12.2018 16:00:00 11,7 10,4 55 30 76 41 W 1007,4 - 5,9
13.12.2018 15:00:00 10,0 8,8 24 13 56 31 WSW 1007,1 - 4,0
13.12.2018 14:00:00 10,1 8,5 36 20 62 33 SW 1007,1 - 3,2
13.12.2018 13:00:00 10,9 9,2 50 27 87 47 WSW 1006,8 6 2,0
13.12.2018 12:00:00 11,5 10,1 38 21 69 37 WSW 1006,7 - 5,9
13.12.2018 11:00:00 12,4 9,8 29 16 45 24 WSW 1006,3 - 0,2
13.12.2018 10:00:00 12,0 7,9 10 5 37 20 SW 1005,4 - 0,0
13.12.2018 09:00:00 11,8 7,3 23 12 36 20 S 1005,0 - 0,0
13.12.2018 08:00:00 11,1 7,8 24 13 42 23 S 1005,3 - 0,6
13.12.2018 07:00:00 10,9 8,3 13 7 27 14 S 1006,2 8 0,8
13.12.2018 06:00:00 10,8 8,2 11 6 20 11 S 1006,7 - 1,2
13.12.2018 05:00:00 11,5 7,6 11 6 18 10 S 1007,3 - 0,8
13.12.2018 04:00:00 12,6 6,0 11 6 21 11 SSE 1007,6 15 0,0
13.12.2018 03:00:00 11,5 5,6 13 7 26 14 S 1008,3 - 0,0
13.12.2018 02:00:00 9,8 6,1 10 5 18 10 S 1009,4 - 0,0
13.12.2018 01:00:00 10,6 7,1 3 2 15 8 E 1011,1 15 0,0
13.12.2018 00:00:00 11,4 7,3 2 1 11 6 SSE 1011,4 - 0,0
12.12.2018 23:00:00 11,1 7,6 8 5 19 10 W 1012,7 - 0,0
12.12.2018 22:00:00 10,5 7,2 9 5 18 10 E 1012,6 15 0,0
12.12.2018 21:00:00 10,7 7,2 15 8 22 12 SE 1014,3 - 0,0
12.12.2018 20:00:00 10,6 8,0 8 4 11 6 ESE 1015,8 - 0,0
12.12.2018 19:00:00 10,9 8,3 6 4 10 5 SSE 1016,9 8 0,0
12.12.2018 18:00:00 11,6 8,4 4 2 7 4 S 1017,5 - 0,0
12.12.2018 17:00:00 12,8 7,9 5 3 9 5 W 1018,3 - 0,0
12.12.2018 16:00:00 13,6 8,2 4 2 13 7 SW 1018,5 - 0,0
12.12.2018 15:00:00 13,7 9,1 6 4 16 8 SW 1019,1 - 0,0
12.12.2018 14:00:00 13,2 8,5 11 6 18 10 SW 1019,7 - 0,0
12.12.2018 13:00:00 12,9 9,5 12 7 19 11 SSW 1020,7 15 0,0
12.12.2018 12:00:00 12,3 10,2 10 5 22 12 SSW 1021,8 - 0,0
12.12.2018 11:00:00 11,3 9,7 14 8 23 12 SSW 1022,3 - 0,0
12.12.2018 10:00:00 11,0 9,6 13 7 34 19 SSW 1022,5 15 1,4
12.12.2018 09:00:00 11,5 10,1 16 9 38 21 SW 1022,5 - 0,4
12.12.2018 08:00:00 11,3 9,6 19 11 44 24 W 1022,2 - 1,4
12.12.2018 07:00:00 12,6 11,0 23 12 44 24 WSW 1022,0 - 0,0
12.12.2018 06:00:00 12,6 11,3 22 12 43 23 WSW 1021,8 - 1,6
12.12.2018 05:00:00 12,8 11,0 26 14 42 23 WSW 1022,0 - 0,0
12.12.2018 04:00:00 12,5 9,9 17 9 28 15 SSW 1022,2 13 0,2
12.12.2018 03:00:00 13,0 9,4 22 12 32 18 WSW 1022,4 - 0,0
12.12.2018 02:00:00 13,3 6,9 18 10 32 17 SW 1022,3 - 0,0
12.12.2018 01:00:00 12,3 6,3 19 10 40 22 SW 1022,5 18 0,0
12.12.2018 00:00:00 12,4 8,5 29 16 44 24 WSW 1022,2 - 0,0
11.12.2018 23:00:00 12,0 6,5 27 15 43 23 WSW 1021,9 - 0,0
11.12.2018 22:00:00 11,2 4,6 28 15 39 21 WSW 1021,4 20 0,0
11.12.2018 21:00:00 7,5 5,1 11 6 15 8 SW 1021,5 - 0,0
11.12.2018 20:00:00 8,5 6,1 6 3 11 6 SSW 1021,2 - 0,0
11.12.2018 19:00:00 9,2 6,5 6 3 13 7 S 1020,8 20 0,0
11.12.2018 18:00:00 10,8 6,9 6 4 13 7 ESE 1020,5 - 0,0
11.12.2018 17:00:00 12,4 6,7 6 4 10 6 E 1020,4 - 0,0
11.12.2018 16:00:00 14,0 6,8 5 3 16 9 E 1020,2 20 0,0
11.12.2018 15:00:00 13,8 6,4 8 5 16 9 NE 1020,6 - 0,0
11.12.2018 14:00:00 14,5 6,3 10 6 17 9 E 1020,7 - 0,0
11.12.2018 13:00:00 14,0 6,1 13 7 22 12 ESE 1021,3 - 0,0
11.12.2018 12:00:00 11,3 6,0 9 5 16 9 ESE 1022,4 - 0,0
11.12.2018 11:00:00 8,3 4,7 11 6 17 9 E 1023,2 - 0,0
11.12.2018 10:00:00 6,1 5,1 9 5 15 8 ESE 1023,1 14 0,0
11.12.2018 09:00:00 4,8 3,5 7 4 14 8 E 1023,0 - 0,2
11.12.2018 08:00:00 5,1 3,9 6 4 15 8 SE 1023,2 - 0,0
11.12.2018 07:00:00 4,9 3,4 13 7 19 10 ESE 1023,6 15 0,0
11.12.2018 06:00:00 5,7 4,3 15 8 20 11 ESE 1024,6 - 0,0
11.12.2018 05:00:00 5,0 3,5 13 7 19 10 SE 1025,6 - 0,0
11.12.2018 04:00:00 5,7 4,0 10 6 19 10 SE 1026,5 18 0,0
11.12.2018 03:00:00 6,0 4,3 9 5 18 10 SE 1027,1 - 0,0
11.12.2018 02:00:00 5,7 4,0 11 6 15 8 SE 1027,5 - 0,0
11.12.2018 01:00:00 6,4 4,6 9 5 13 7 ESE 1028,1 - 0,0
11.12.2018 00:00:00 7,2 5,2 8 4 16 8 SE 1028,8 - 0,0
10.12.2018 23:00:00 8,0 5,6 9 5 14 7 ESE 1029,1 - 0,0
10.12.2018 22:00:00 9,1 6,0 9 5 13 7 SE 1029,6 16 0,0
10.12.2018 21:00:00 10,7 6,6 9 5 16 8 ESE 1030,1 - 0,0
10.12.2018 20:00:00 11,9 7,6 11 6 26 14 ESE 1030,8 - 0,0
10.12.2018 19:00:00 12,5 7,8 18 10 27 15 NE 1030,9 10 0,0
10.12.2018 18:00:00 13,0 8,9 17 9 24 13 NNE 1030,9 - 0,0
10.12.2018 17:00:00 13,0 7,7 14 8 21 11 NNE 1031,0 - 0,0
10.12.2018 16:00:00 13,7 7,0 13 7 18 10 NNE 1031,2 12 0,0
10.12.2018 15:00:00 13,7 6,3 14 8 19 11 N 1031,6 - 0,0

tt = Température de l'air
td = dewpoint
ff = Vitesse du vent
fx = gusts
dd = Direction du vent
ppp = reduced air pressure
vv = visibility
rr = Quantités de précipitations

stations d'obs. à proximité